Location: Passau
(48.5721°N, 13.4363°E)
Time: 08:44:07
(UTC+01:00)

Envisat - Visible Passes

Search period start: 16 January 2018 00:00
Search period end: 26 January 2018 00:00
Orbit: 764 x 766 km, 98.2° (Epoch: 15 January)

Date Brightness Start Highest point End Pass type
(mag) Time Alt. Az. Time Alt. Az. Time Alt. Az.
16 Jan 3.8 18:57:10 34° NNE 18:57:10 34° NNE 19:00:32 10° N visible
16 Jan 5.3 20:37:22 20° NW 20:37:22 20° NW 20:39:19 10° NW visible
17 Jan 6.3 06:58:43 10° ENE 06:59:43 10° E 07:00:42 10° E visible
17 Jan 4.1 18:19:48 23° NE 18:19:48 23° NE 18:23:15 10° N visible
17 Jan 4.3 19:59:59 34° NW 19:59:59 34° NW 20:03:00 10° NNW visible
18 Jan 4.7 17:42:25 12° ENE 17:43:06 12° NE 17:45:11 10° NNE visible
18 Jan 3.5 19:22:37 47° N 19:22:37 47° N 19:26:18 10° N visible
18 Jan 5.7 21:02:48 14° WNW 21:02:48 14° WNW 21:04:10 10° NW visible
19 Jan 3.6 18:45:13 34° NE 18:45:13 34° NE 18:49:17 10° N visible
19 Jan 4.8 20:25:25 28° WNW 20:25:25 28° WNW 20:28:22 10° NNW visible
20 Jan 4.2 18:07:49 19° ENE 18:08:19 19° ENE 18:11:51 10° NNE visible
20 Jan 3.6 19:48:01 51° NW 19:48:01 51° NW 19:51:55 10° NNW visible
21 Jan 4.8 17:31:27 10° ENE 17:32:09 10° NE 17:32:52 10° NE visible
21 Jan 3.1 19:10:36 54° NE 19:10:36 54° NE 19:15:07 10° N visible
21 Jan 5.3 20:50:48 20° WNW 20:50:48 20° WNW 20:53:25 10° NW visible
22 Jan 5.9 07:11:37 10° NE 07:14:25 15° E 07:17:12 10° ESE visible
22 Jan 3.7 18:33:12 29° ENE 18:33:38 29° ENE 18:38:00 10° N visible
22 Jan 4.2 20:13:23 40° WNW 20:13:23 40° WNW 20:17:21 10° NNW visible
23 Jan 4.5 17:55:47 14° ENE 17:57:20 16° NE 18:00:22 10° NNE visible
23 Jan 2.9 19:35:58 80° NNW 19:35:58 80° NNW 19:40:48 10° NNW visible
23 Jan 5.8 21:16:09 13° WNW 21:16:09 13° WNW 21:17:47 10° WNW visible
24 Jan 3.2 18:58:32 45° E 18:59:03 46° ENE 19:03:54 10° N visible
24 Jan 4.9 20:38:43 26° W 20:38:43 26° W 20:42:34 10° NW visible
25 Jan 6.2 07:01:22 10° ENE 07:03:07 12° E 07:04:52 10° ESE visible
25 Jan 4.0 18:21:06 21° E 18:22:37 25° ENE 18:26:41 10° N visible
25 Jan 3.6 20:01:17 54° W 20:01:19 54° W 20:06:19 10° NNW visible
